• In Austria
  • List of Countries
  • For 7 days
  • Water Temperature
  • Satellite Maps
  • Weather Map
  • News
  • Weather Widgets
  • user-avatar
    Login

    Hourly Weather Kipungo

    Today, 25 May, Friday

    Time Temperature Precipitation Wind Pressure Humidity
    00:00 +14°C° 0 mm 1 mps 653 mmHg 60%
    01:00 +13°C° 0 mm 0 mps 653 mmHg 62%
    02:00 +12°C° 0 mm 0 mps 653 mmHg 65%
    03:00 +12°C° 0 mm 0 mps 653 mmHg 67%
    04:00 +11°C° 0 mm 0 mps 652 mmHg 69%
    05:00 +12°C° 0 mm 0 mps 653 mmHg 68%
    06:00 +12°C° 0 mm 0 mps 653 mmHg 68%
    07:00 +12°C° 0 mm 0 mps 653 mmHg 67%
    08:00 +18°C° 0 mm 1 mps 654 mmHg 57%
    09:00 +20°C° 0 mm 2 mps 655 mmHg 46%
    10:00 +25°C° 0 mm 2 mps 656 mmHg 35%
    11:00 +26°C° 0 mm 2 mps 656 mmHg 32%
    12:00 +27°C° 0 mm 2 mps 655 mmHg 29%
    13:00 +29°C° 0 mm 2 mps 655 mmHg 26%
    14:00 +28°C° 0 mm 2 mps 655 mmHg 28%
    15:00 +28°C° 0 mm 2 mps 654 mmHg 29%
    16:00 +27°C° 0 mm 2 mps 654 mmHg 30%
    17:00 +25°C° 0 mm 2 mps 653 mmHg 36%
    18:00 +23°C° 0 mm 2 mps 653 mmHg 41%
    19:00 +19°C° 0 mm 2 mps 653 mmHg 47%
    20:00 +18°C° 0 mm 2 mps 653 mmHg 49%
    21:00 +18°C° 0 mm 2 mps 653 mmHg 52%
    22:00 +17°C° 0 mm 2 mps 654 mmHg 54%
    23:00 +16°C° 0 mm 2 mps 653 mmHg 58%

    Tomorrow, 26 May, Saturday

    Time Temperature Precipitation Wind Pressure Humidity
    00:00 +15°C° 0 mm 2 mps 653 mmHg 62%
    01:00 +15°C° 0 mm 1 mps 653 mmHg 66%
    02:00 +14°C° 0 mm 1 mps 653 mmHg 69%
    03:00 +14°C° 0 mm 1 mps 653 mmHg 73%
    04:00 +13°C° 0 mm 1 mps 652 mmHg 77%
    05:00 +13°C° 0 mm 1 mps 653 mmHg 77%
    06:00 +14°C° 0 mm 1 mps 653 mmHg 77%
    07:00 +13°C° 0 mm 0 mps 653 mmHg 77%
    08:00 +18°C° 0 mm 1 mps 654 mmHg 65%
    09:00 +21°C° 0 mm 2 mps 655 mmHg 52%
    10:00 +25°C° 0 mm 3 mps 656 mmHg 40%
    11:00 +27°C° 0 mm 3 mps 656 mmHg 35%
    12:00 +28°C° 0 mm 2 mps 656 mmHg 30%
    13:00 +29°C° 0 mm 2 mps 655 mmHg 25%
    14:00 +29°C° 0 mm 2 mps 655 mmHg 25%
    15:00 +29°C° 0 mm 2 mps 655 mmHg 25%
    16:00 +29°C° 0 mm 1 mps 654 mmHg 25%
    17:00 +26°C° 0 mm 1 mps 654 mmHg 31%
    18:00 +23°C° 0 mm 1 mps 654 mmHg 36%
    19:00 +21°C° 0 mm 1 mps 653 mmHg 41%
    20:00 +20°C° 0 mm 1 mps 654 mmHg 43%
    21:00 +20°C° 0 mm 1 mps 654 mmHg 44%
    22:00 +19°C° 0 mm 1 mps 655 mmHg 45%
    23:00 +18°C° 0 mm 1 mps 655 mmHg 48%

    Day after tomorrow, 27 May, Sunday

    Time Temperature Precipitation Wind Pressure Humidity
    00:00 +18°C° 0 mm 1 mps 654 mmHg 52%
    01:00 +16°C° 0 mm 1 mps 654 mmHg 55%
    02:00 +15°C° 0 mm 1 mps 654 mmHg 59%
    03:00 +15°C° 0 mm 1 mps 653 mmHg 62%
    04:00 +14°C° 0 mm 1 mps 653 mmHg 66%
    05:00 +14°C° 0 mm 1 mps 654 mmHg 67%
    06:00 +14°C° 0 mm 1 mps 654 mmHg 67%
    07:00 +14°C° 0 mm 1 mps 655 mmHg 68%
    08:00 +18°C° 0 mm 2 mps 656 mmHg 57%
    09:00 +21°C° 0 mm 3 mps 656 mmHg 46%
    10:00 +26°C° 0 mm 4 mps 657 mmHg 34%
    11:00 +27°C° 0 mm 3 mps 657 mmHg 31%
    12:00 +28°C° 0 mm 3 mps 656 mmHg 28%
    13:00 +30°C° 0 mm 3 mps 656 mmHg 25%
    14:00 +29°C° 0 mm 2 mps 656 mmHg 26%
    15:00 +29°C° 0 mm 2 mps 655 mmHg 26%
    16:00 +29°C° 0 mm 2 mps 655 mmHg 26%
    17:00 +26°C° 0 mm 2 mps 655 mmHg 33%
    18:00 +23°C° 0 mm 1 mps 655 mmHg 39%
    19:00 +21°C° 0 mm 1 mps 655 mmHg 45%
    20:00 +20°C° 0 mm 1 mps 655 mmHg 47%
    21:00 +20°C° 0 mm 1 mps 655 mmHg 48%
    22:00 +20°C° 0 mm 1 mps 656 mmHg 49%
    23:00 +18°C° 0 mm 0 mps 656 mmHg 50%

    28 May, Monday

    Time Temperature Precipitation Wind Pressure Humidity
    00:00 +17°C° 0 mm 0 mps 655 mmHg 51%
    01:00 +17°C° 0 mm 0 mps 655 mmHg 53%
    02:00 +16°C° 0 mm 0 mps 655 mmHg 56%
    03:00 +18°C° 0 mm 1 mps 655 mmHg 58%
    04:00 +16°C° 0 mm 1 mps 655 mmHg 61%
    05:00 +16°C° 0 mm 1 mps 655 mmHg 63%
    06:00 +16°C° 0 mm 1 mps 655 mmHg 64%
    07:00 +16°C° 0 mm 1 mps 656 mmHg 65%
    08:00 +19°C° 0 mm 2 mps 656 mmHg 55%
    09:00 +22°C° 0 mm 3 mps 657 mmHg 44%
    10:00 +27°C° 0 mm 3 mps 658 mmHg 33%
    11:00 +28°C° 0 mm 3 mps 658 mmHg 30%
    12:00 +29°C° 0 mm 3 mps 657 mmHg 27%
    13:00 +30°C° 0 mm 2 mps 657 mmHg 23%
    14:00 +30°C° 0 mm 2 mps 656 mmHg 23%
    15:00 +30°C° 0 mm 2 mps 656 mmHg 23%
    16:00 +29°C° 0 mm 2 mps 655 mmHg 23%
    17:00 +27°C° 0 mm 1 mps 655 mmHg 29%
    18:00 +24°C° 0 mm 1 mps 655 mmHg 34%
    19:00 +21°C° 0 mm 1 mps 655 mmHg 39%
    20:00 +18°C° 0 mm 0 mps 655 mmHg 41%
    21:00 +18°C° 0 mm 0 mps 655 mmHg 43%
    22:00 +17°C° 0 mm 0 mps 655 mmHg 45%
    23:00 +16°C° 0 mm 0 mps 655 mmHg 46%

    29 May, Tuesday

    Time Temperature Precipitation Wind Pressure Humidity
    00:00 +18°C° 0 mm 1 mps 655 mmHg 47%
    01:00 +16°C° 0 mm 1 mps 655 mmHg 49%
    02:00 +16°C° 0 mm 1 mps 654 mmHg 52%
    03:00 +14°C° 0 mm 0 mps 654 mmHg 54%
    04:00 +14°C° 0 mm 0 mps 654 mmHg 57%
    05:00 +14°C° 0 mm 0 mps 654 mmHg 58%
    06:00 +14°C° 0 mm 0 mps 655 mmHg 59%
    07:00 +14°C° 0 mm 0 mps 655 mmHg 60%
    08:00 +20°C° 0 mm 1 mps 656 mmHg 52%
    09:00 +23°C° 0 mm 2 mps 656 mmHg 43%
    10:00 +27°C° 0 mm 2 mps 657 mmHg 35%
    11:00 +28°C° 0 mm 2 mps 657 mmHg 31%
    12:00 +30°C° 0 mm 2 mps 656 mmHg 28%
    13:00 +31°C° 0 mm 2 mps 656 mmHg 24%
    14:00 +31°C° 0 mm 2 mps 656 mmHg 24%
    15:00 +30°C° 0 mm 1 mps 655 mmHg 24%
    16:00 +30°C° 0 mm 1 mps 655 mmHg 24%
    17:00 +27°C° 0 mm 1 mps 655 mmHg 29%
    18:00 +24°C° 0 mm 1 mps 654 mmHg 35%
    19:00 +22°C° 0 mm 1 mps 654 mmHg 41%
    20:00 +19°C° 0 mm 0 mps 654 mmHg 42%
    21:00 +18°C° 0 mm 0 mps 654 mmHg 44%
    22:00 +17°C° 0 mm 0 mps 654 mmHg 46%
    23:00 +17°C° 0 mm 0 mps 654 mmHg 48%

    30 May, Wednesday

    Time Temperature Precipitation Wind Pressure Humidity
    00:00 +16°C° 0 mm 0 mps 654 mmHg 50%
    01:00 +16°C° 0 mm 1 mps 653 mmHg 52%
    02:00 +15°C° 0 mm 0 mps 653 mmHg 53%
    03:00 +14°C° 0 mm 0 mps 653 mmHg 55%
    04:00 +14°C° 0 mm 0 mps 653 mmHg 57%
    05:00 +14°C° 0 mm 0 mps 653 mmHg 57%
    06:00 +14°C° 0 mm 0 mps 654 mmHg 58%
    07:00 +14°C° 0 mm 0 mps 654 mmHg 58%
    08:00 +20°C° 0 mm 1 mps 655 mmHg 49%
    09:00 +24°C° 0 mm 1 mps 656 mmHg 40%
    10:00 +28°C° 0 mm 2 mps 657 mmHg 31%
    11:00 +29°C° 0 mm 2 mps 657 mmHg 28%
    12:00 +30°C° 0 mm 2 mps 656 mmHg 25%
    13:00 +31°C° 0 mm 2 mps 656 mmHg 21%
    14:00 +31°C° 0 mm 2 mps 655 mmHg 21%
    15:00 +31°C° 0 mm 2 mps 655 mmHg 21%
    16:00 +31°C° 0 mm 1 mps 654 mmHg 21%
    17:00 +28°C° 0 mm 1 mps 654 mmHg 26%
    18:00 +25°C° 0 mm 1 mps 654 mmHg 31%
    19:00 +22°C° 0 mm 1 mps 653 mmHg 36%
    20:00 +21°C° 0 mm 1 mps 654 mmHg 37%
    21:00 +18°C° 0 mm 0 mps 654 mmHg 39%
    22:00 +18°C° 0 mm 0 mps 654 mmHg 40%
    23:00 +17°C° 0 mm 0 mps 654 mmHg 42%
    Show more